FW1784 Weather Reports


Display with metric or nautical units.
time (UTC)temp
F
wind
direction
speed
MPH
gust
MPH
rain 1hr
in
rain 24hr
in
rain mn
in
humidity
%
barometer
mb
20260904030104 70 113 0.0 0.0 0.00 0.30 0.20 97 1011.6
20260904024604 70 113 0.0 0.0 0.00 0.30 0.20 97 1011.8
20260904023002 70 113 0.0 0.0 0.00 0.30 0.20 96 1012.0
20260904021502 70 113 0.0 0.0 0.00 0.30 0.20 96 1011.8
20260904020003 70 113 0.0 0.0 0.00 0.31 0.20 96 1011.7
20260904014502 71 113 0.0 0.0 0.00 0.31 0.20 96 1012.1
20260904013122 71 113 0.0 0.0 0.00 0.31 0.20 96 1012.1
20260904011502 71 113 0.0 0.0 0.00 0.31 0.20 96 1012.0
20260904004605 71 113 0.0 0.0 0.00 0.31 0.20 96 1011.9
20260904003003 72 113 0.0 0.0 0.00 0.31 0.20 96 1011.8
20260904001603 72 113 0.0 0.0 0.00 0.31 0.20 96 1011.8
20260904000004 73 113 0.0 0.0 0.00 0.32 0.20 95 1011.7
20260903234603 73 113 0.0 0.0 0.00 0.32 0.20 94 1011.7
20260903233008 74 113 0.0 0.0 0.00 0.32 0.20 93 1011.3
20260903231604 75 113 0.0 0.0 0.00 0.32 0.20 92 1011.0
20260903230003 76 113 0.0 0.0 0.00 0.32 0.20 91 1011.2
20260903224502 76 113 0.0 0.0 0.00 0.32 0.20 90 1011.2
20260903223003 77 113 0.0 0.0 0.00 0.32 0.20 91 1011.2
20260903221603 77 113 0.0 0.0 0.00 0.32 0.20 89 1011.3
20260903220003 78 113 0.0 0.0 0.00 0.32 0.20 86 1011.1
20260903214503 79 113 0.0 0.0 0.00 0.32 0.20 86 1011.4
20260903213102 80 113 0.0 2.0 0.00 0.32 0.20 82 1011.3
20260903211605 81 117 0.0 3.0 0.00 0.32 0.20 79 1011.2
20260903210141 83 250 1.0 3.0 0.00 0.32 0.20 74 1011.1
20260903204607 83 225 1.0 3.0 0.00 0.32 0.20 70 1011.1
20260903203002 83 115 1.0 3.0 0.00 0.32 0.20 70 1011.1
20260903201602 83 165 2.0 7.0 0.00 0.32 0.20 71 1011.2
20260903200003 83 233 1.0 3.0 0.00 0.35 0.20 72 1011.4
20260903194503 83 96 1.0 4.0 0.00 0.35 0.20 72 1011.5
20260903193103 83 138 2.0 5.0 0.00 0.35 0.20 68 1011.5
20260903191508 82 76 0.0 5.0 0.00 0.35 0.20 70 1011.9
20260903184502 82 55 3.0 10.0 0.00 0.35 0.20 72 1012.0
20260903183102 83 108 2.0 8.0 0.00 0.35 0.20 70 1012.2
20260903181602 82 219 2.0 5.0 0.00 0.35 0.20 73 1012.2
20260903180002 81 178 1.0 6.0 0.00 0.56 0.20 76 1012.2
20260903174502 80 93 2.0 4.0 0.00 0.56 0.20 75 1012.4
20260903173106 80 225 1.0 5.0 0.00 0.56 0.20 79 1012.4
20260903171613 79 190 2.0 9.0 0.00 0.56 0.20 79 1012.5
20260903164603 78 87 1.0 9.0 0.00 0.64 0.20 85 1012.9
20260903163003 77 213 1.0 7.0 0.00 0.64 0.20 86 1012.9
20260903161501 77 257 0.0 10.0 0.00 0.64 0.20 88 1012.9
20260903160003 75 182 1.0 8.0 0.00 0.64 0.20 91 1013.0
20260903154603 75 146 0.0 4.0 0.00 0.64 0.20 92 1013.1
20260903153002 74 182 0.0 3.0 0.00 0.64 0.20 95 1013.2
20260903151611 74 227 0.0 6.0 0.00 0.64 0.20 96 1013.3
20260903150043 73 253 0.0 2.0 0.00 0.64 0.20 98 1013.4
20260903144503 72 165 0.0 3.0 0.00 0.64 0.20 99 1013.4
20260903143102 71 191 1.0 5.0 0.00 0.64 0.20 99 1013.5
20260903141502 70 334 0.0 0.0 0.00 0.64 0.20 99 1013.4
20260903140113 69 233 0.0 0.0 0.00 0.64 0.20 99 1013.5
20260903134603 69 235 0.0 0.0 0.00 0.65 0.20 100 1013.3
20260903133002 68 206 0.0 0.0 0.00 0.65 0.20 100 1013.5
20260903131502 68 201 0.0 0.0 0.00 0.65 0.20 99 1013.7
20260903124615 67 78 0.0 0.0 0.00 0.65 0.20 100 1013.5
20260903121504 66 326 0.0 0.0 0.00 0.65 0.20 100 1013.8
20260903120003 65 325 0.0 0.0 0.00 0.66 0.20 100 1013.9
20260903114502 65 298 0.0 0.0 0.00 0.66 0.20 99 1013.9
20260903113105 65 196 0.0 0.0 0.00 0.66 0.20 99 1013.6
20260903111503 64 259 0.0 0.0 0.00 0.66 0.20 99 1013.8
20260903104603 64 259 0.0 0.0 0.00 0.68 0.20 99 1014.2
20260903103002 64 258 0.0 0.0 0.01 0.68 0.20 99 1014.0
20260903101604 64 260 0.0 0.0 0.01 0.68 0.20 99 1014.3
20260903100005 64 260 0.0 0.0 0.01 0.68 0.20 99 1014.2
20260903094502 64 260 0.0 0.0 0.01 0.68 0.20 99 1014.3
20260903093105 64 261 0.0 0.0 0.00 0.67 0.19 99 1014.1
20260903091502 64 259 0.0 0.0 0.00 0.67 0.19 99 1013.8
20260903084602 64 126 0.0 0.0 0.00 0.67 0.19 99 1014.2
20260903083002 64 123 0.0 0.0 0.01 0.67 0.19 99 1014.1
20260903081603 64 123 0.0 0.0 0.01 0.67 0.19 99 1014.2
20260903080002 64 120 0.0 0.0 0.04 0.67 0.19 99 1014.4
20260903074503 64 120 0.0 0.0 0.04 0.67 0.19 99 1014.2
20260903073003 64 120 0.0 0.0 0.03 0.66 0.18 99 1014.4
20260903071603 64 123 0.0 0.0 0.03 0.66 0.18 99 1014.8
20260903070010 64 123 0.0 0.0 0.01 0.64 0.16 99 1014.4
20260903064502 64 149 0.0 0.0 0.01 0.64 0.15 99 1014.8
20260903063102 64 251 0.0 0.0 0.01 0.64 0.15 99 1015.1
20260903061505 64 251 0.0 0.0 0.01 0.64 0.15 99 1014.9
20260903054618 64 251 0.0 0.0 0.03 0.64 0.14 99 1015.3
20260903053002 63 251 0.0 0.0 0.06 0.64 0.14 99 1016.1
20260903051605 63 355 0.0 0.0 0.09 0.64 0.14 99 1016.7
20260903044603 63 268 0.0 0.0 0.18 0.61 0.11 99 1016.1
20260903043003 63 268 0.0 0.0 0.18 0.57 0.08 99 1016.7
20260903041613 63 269 0.0 0.0 0.14 0.54 0.04 99 1017.4
20260903040002 63 270 0.0 0.0 0.10 0.50 0.50 99 1017.7
20260903034503 63 270 0.0 0.0 0.02 0.42 0.42 99 1018.5
20260903033102 63 270 0.0 0.0 0.00 0.40 0.40 99 1018.5
20260903031502 63 270 0.0 0.0 0.00 0.40 0.40 99 1017.8